This is the latest recevied weather packets stored in our database for station/object N9CQL. If no packets are shown the sender has not sent any weather packets the latest 10 day(s).
| Time | Temp. | Humidity | Pressure | Rain* | Wind** | Luminosity | Snow |
|---|---|---|---|---|---|---|---|
| 1777982015 | 10.56° C | 60% | 1006.9 hPa | 0 mm | - | 3 W/m² | - |
| 1777981712 | 10.56° C | 56% | 1006.6 hPa | 0 mm | - | 3 W/m² | - |
| 1777981409 | 10.56° C | 53% | 1006.7 hPa | 0 mm | - | 3 W/m² | - |
| 1777981105 | 10.56° C | 52% | 1006.7 hPa | 0 mm | - | 2 W/m² | - |
| 1777980802 | 10.56° C | 53% | 1006.3 hPa | 0 mm | - | 1 W/m² | - |
| 1777980497 | 11.11° C | 53% | 1006.2 hPa | 0 mm | - | 1 W/m² | - |
| 1777980195 | 11.11° C | 54% | 1005.8 hPa | 0 mm | - | 1 W/m² | - |
| 1777979890 | 11.11° C | 53% | 1005.4 hPa | 0 mm | - | 2 W/m² | - |
| 1777979586 | 11.11° C | 54% | 1005.2 hPa | 0 mm | - | 3 W/m² | - |
| 1777979282 | 11.11° C | 55% | 1005.5 hPa | 0 mm | - | 5 W/m² | - |
| 1777978980 | 11.11° C | 58% | 1005.5 hPa | 0 mm | - | 4 W/m² | - |
| 1777978677 | 11.11° C | 59% | 1005.6 hPa | 0 mm | - | 0 W/m² | - |
| 1777978372 | 11.11° C | 58% | 1005.6 hPa | 0 mm | - | 1 W/m² | - |
| 1777978068 | 11.11° C | 58% | 1005.5 hPa | 0 mm | - | 0 W/m² | - |
| 1777977766 | 11.67° C | 60% | 1005.8 hPa | 0 mm | - | 0 W/m² | - |
| 1777977462 | 11.67° C | 59% | 1005.9 hPa | 0 mm | - | 0 W/m² | - |
| 1777977160 | 11.67° C | 59% | 1004.9 hPa | 0 mm | - | 0 W/m² | - |
| 1777976857 | 11.67° C | 56% | 1004.5 hPa | 0 mm | - | 0 W/m² | - |
| 1777976555 | 11.67° C | 56% | 1004.7 hPa | 0 mm | - | 0 W/m² | - |
| 1777976254 | 11.67° C | 55% | 1004.6 hPa | 0 mm | - | 0 W/m² | - |
| 1777975950 | 11.67° C | 57% | 1004.6 hPa | 0 mm | - | 0 W/m² | - |
| 1777975646 | 12.22° C | 54% | 1004.5 hPa | 0 mm | - | 0 W/m² | - |
| 1777975343 | 12.22° C | 55% | 1004.7 hPa | 0 mm | - | 0 W/m² | - |
| 1777975038 | 12.22° C | 53% | 1005 hPa | 0 mm | - | 0 W/m² | - |
| 1777974737 | 12.22° C | 53% | 1004.8 hPa | 0 mm | - | 0 W/m² | - |
* Rain latest hour (hover to see other rain measurements)
** Current wind speed in m/s (hover to see current wind gust speed)